Stündliche Wetter Otolchicy

Heute, 10 April, Samstag

Zeit Temperatur Niederschläge Wind Luftdruck Luftfeuchtigkeit
00:00 +2°C° 0 mm 5 m/S 751 mmHg 62%
01:00 +2°C° 0 mm 5 m/S 751 mmHg 63%
02:00 +2°C° 0 mm 5 m/S 750 mmHg 64%
03:00 +1°C° 0 mm 5 m/S 750 mmHg 67%
04:00 +1°C° 0 mm 5 m/S 750 mmHg 69%
05:00 0°C° 0 mm 5 m/S 750 mmHg 72%
06:00 +1°C° 0 mm 5 m/S 750 mmHg 68%
07:00 +2°C° 0 mm 5 m/S 750 mmHg 65%
08:00 +3°C° 0 mm 6 m/S 750 mmHg 62%
09:00 +5°C° 0 mm 6 m/S 750 mmHg 57%
10:00 +8°C° 0 mm 6 m/S 750 mmHg 53%
11:00 +9°C° 0 mm 6 m/S 750 mmHg 48%
12:00 +10°C° 0 mm 6 m/S 750 mmHg 46%
13:00 +13°C° 0 mm 6 m/S 750 mmHg 44%
14:00 +14°C° 0 mm 6 m/S 750 mmHg 43%
15:00 +14°C° 0 mm 6 m/S 750 mmHg 45%
16:00 +14°C° 0 mm 5 m/S 749 mmHg 46%
17:00 +14°C° 0 mm 5 m/S 749 mmHg 48%
18:00 +12°C° 0 mm 4 m/S 750 mmHg 54%
19:00 +10°C° 0 mm 4 m/S 750 mmHg 61%
20:00 +8°C° 0 mm 4 m/S 750 mmHg 67%
21:00 +7°C° 0 mm 4 m/S 750 mmHg 69%
22:00 +7°C° 0 mm 4 m/S 751 mmHg 71%
23:00 +6°C° 0 mm 4 m/S 751 mmHg 74%

Morgen, 11 April, Sonntag

Zeit Temperatur Niederschläge Wind Luftdruck Luftfeuchtigkeit
00:00 +6°C° 0 mm 4 m/S 751 mmHg 75%
01:00 +5°C° 0 mm 4 m/S 751 mmHg 77%
02:00 +5°C° 0 mm 4 m/S 752 mmHg 78%
03:00 +4°C° 0 mm 4 m/S 752 mmHg 80%
04:00 +4°C° 0 mm 3 m/S 752 mmHg 81%
05:00 +4°C° 0 mm 3 m/S 752 mmHg 83%
06:00 +5°C° 0 mm 4 m/S 753 mmHg 78%
07:00 +6°C° 0 mm 4 m/S 753 mmHg 73%
08:00 +7°C° 0 mm 4 m/S 753 mmHg 68%
09:00 +10°C° 0 mm 4 m/S 753 mmHg 62%
10:00 +12°C° 0 mm 5 m/S 754 mmHg 55%
11:00 +14°C° 0 mm 5 m/S 754 mmHg 49%
12:00 +14°C° 0 mm 5 m/S 754 mmHg 46%
13:00 +15°C° 0 mm 5 m/S 754 mmHg 43%
14:00 +16°C° 0 mm 5 m/S 754 mmHg 40%
15:00 +16°C° 0 mm 5 m/S 754 mmHg 41%
16:00 +15°C° 0 mm 5 m/S 753 mmHg 42%
17:00 +15°C° 0 mm 5 m/S 753 mmHg 44%
18:00 +13°C° 0 mm 4 m/S 753 mmHg 49%
19:00 +11°C° 0 mm 4 m/S 753 mmHg 54%
20:00 +8°C° 0 mm 4 m/S 754 mmHg 59%
21:00 +8°C° 0 mm 4 m/S 754 mmHg 61%
22:00 +7°C° 0 mm 4 m/S 754 mmHg 62%
23:00 +8°C° 0 mm 3 m/S 754 mmHg 63%

übermorgen, 12 April, Montag

Zeit Temperatur Niederschläge Wind Luftdruck Luftfeuchtigkeit
00:00 +6°C° 0 mm 4 m/S 754 mmHg 64%
01:00 +5°C° 0 mm 4 m/S 754 mmHg 66%
02:00 +5°C° 0 mm 4 m/S 754 mmHg 67%
03:00 +5°C° 0 mm 4 m/S 753 mmHg 67%
04:00 +4°C° 0 mm 4 m/S 753 mmHg 68%
05:00 +4°C° 0 mm 4 m/S 753 mmHg 68%
06:00 +5°C° 0 mm 4 m/S 753 mmHg 65%
07:00 +6°C° 0 mm 4 m/S 753 mmHg 62%
08:00 +7°C° 0 mm 5 m/S 753 mmHg 59%
09:00 +8°C° 0 mm 5 m/S 753 mmHg 54%
10:00 +10°C° 0 mm 6 m/S 752 mmHg 48%
11:00 +11°C° 0 mm 6 m/S 752 mmHg 43%
12:00 +13°C° 0 mm 6 m/S 752 mmHg 41%
13:00 +14°C° 0 mm 6 m/S 751 mmHg 40%
14:00 +15°C° 0 mm 5 m/S 751 mmHg 38%
15:00 +15°C° 0 mm 5 m/S 751 mmHg 40%
16:00 +15°C° 0 mm 4 m/S 750 mmHg 42%
17:00 +16°C° 0 mm 3 m/S 750 mmHg 44%
18:00 +13°C° 0 mm 3 m/S 750 mmHg 48%
19:00 +12°C° 0 mm 3 m/S 750 mmHg 52%
20:00 +11°C° 0 mm 3 m/S 750 mmHg 55%
21:00 +10°C° 0 mm 3 m/S 750 mmHg 56%
22:00 +10°C° 0 mm 3 m/S 750 mmHg 56%
23:00 +10°C° 0 mm 3 m/S 749 mmHg 56%

13 April, Dienstag

Zeit Temperatur Niederschläge Wind Luftdruck Luftfeuchtigkeit
00:00 +10°C° 0 mm 3 m/S 749 mmHg 58%
01:00 +9°C° 0 mm 3 m/S 749 mmHg 60%
02:00 +9°C° 0 mm 3 m/S 749 mmHg 62%
03:00 +9°C° 0 mm 3 m/S 749 mmHg 63%
04:00 +9°C° 0 mm 3 m/S 749 mmHg 64%
05:00 +8°C° 0 mm 2 m/S 748 mmHg 65%
06:00 +9°C° 0 mm 3 m/S 748 mmHg 64%
07:00 +10°C° 0 mm 3 m/S 748 mmHg 63%
08:00 +11°C° 0 mm 3 m/S 749 mmHg 62%
09:00 +12°C° 0 mm 3 m/S 748 mmHg 58%
10:00 +13°C° 0 mm 4 m/S 748 mmHg 54%
11:00 +15°C° 0 mm 4 m/S 748 mmHg 51%
12:00 +17°C° 0 mm 4 m/S 748 mmHg 50%
13:00 +18°C° 0 mm 3 m/S 748 mmHg 49%
14:00 +18°C° 0 mm 3 m/S 748 mmHg 49%
15:00 +17°C° 0 mm 3 m/S 747 mmHg 57%
16:00 +16°C° 0 mm 3 m/S 747 mmHg 65%
17:00 +13°C° 0 mm 3 m/S 747 mmHg 73%
18:00 +13°C° 0 mm 3 m/S 747 mmHg 76%
19:00 +12°C° 0 mm 3 m/S 747 mmHg 79%
20:00 +11°C° 0 mm 3 m/S 747 mmHg 83%
21:00 +11°C° 0 mm 3 m/S 747 mmHg 85%
22:00 +10°C° 0 mm 3 m/S 747 mmHg 87%
23:00 +10°C° 0 mm 3 m/S 747 mmHg 89%

14 April, Mittwoch

Zeit Temperatur Niederschläge Wind Luftdruck Luftfeuchtigkeit
00:00 +9°C° 0 mm 3 m/S 747 mmHg 90%
01:00 +9°C° 0 mm 3 m/S 746 mmHg 91%
02:00 +8°C° 0 mm 3 m/S 746 mmHg 91%
03:00 +8°C° 0 mm 3 m/S 746 mmHg 91%
04:00 +8°C° 0 mm 3 m/S 745 mmHg 92%
05:00 +8°C° 0 mm 3 m/S 745 mmHg 92%
06:00 +8°C° 0 mm 3 m/S 745 mmHg 88%
07:00 +9°C° 0 mm 3 m/S 745 mmHg 84%
08:00 +10°C° 0 mm 2 m/S 745 mmHg 80%
09:00 +12°C° 0 mm 2 m/S 745 mmHg 74%
10:00 +13°C° 0 mm 2 m/S 745 mmHg 69%
11:00 +14°C° 0 mm 2 m/S 744 mmHg 64%
12:00 +15°C° 0.1 mm 2 m/S 744 mmHg 62%
13:00 +15°C° 0.1 mm 2 m/S 744 mmHg 61%
14:00 +15°C° 0.1 mm 2 m/S 744 mmHg 60%
15:00 +15°C° 0.4 mm 2 m/S 744 mmHg 64%
16:00 +14°C° 0.4 mm 2 m/S 744 mmHg 69%
17:00 +13°C° 0.4 mm 2 m/S 743 mmHg 73%
18:00 +11°C° 0.2 mm 3 m/S 744 mmHg 79%
19:00 +10°C° 0.2 mm 4 m/S 744 mmHg 84%
20:00 +7°C° 0.2 mm 4 m/S 744 mmHg 89%
21:00 +7°C° 0.1 mm 4 m/S 744 mmHg 90%
22:00 +8°C° 0.1 mm 3 m/S 744 mmHg 91%
23:00 +8°C° 0.1 mm 3 m/S 743 mmHg 91%

15 April, Donnerstag

Zeit Temperatur Niederschläge Wind Luftdruck Luftfeuchtigkeit
00:00 +8°C° 0.1 mm 3 m/S 743 mmHg 92%
01:00 +8°C° 0.1 mm 2 m/S 743 mmHg 92%
02:00 +8°C° 0.1 mm 2 m/S 743 mmHg 92%
03:00 +8°C° 0.2 mm 2 m/S 743 mmHg 92%
04:00 +8°C° 0.2 mm 3 m/S 743 mmHg 92%
05:00 +8°C° 0.2 mm 3 m/S 743 mmHg 91%
06:00 +8°C° 0.1 mm 3 m/S 744 mmHg 91%
07:00 +8°C° 0.1 mm 3 m/S 744 mmHg 91%
08:00 +8°C° 0.1 mm 3 m/S 744 mmHg 91%
09:00 +9°C° 0.1 mm 3 m/S 744 mmHg 90%
10:00 +9°C° 0.1 mm 3 m/S 744 mmHg 89%
11:00 +9°C° 0.1 mm 3 m/S 744 mmHg 89%
12:00 +10°C° 0.1 mm 3 m/S 744 mmHg 86%
13:00 +10°C° 0.1 mm 3 m/S 744 mmHg 84%
14:00 +11°C° 0.1 mm 3 m/S 744 mmHg 82%
15:00 +11°C° 0.1 mm 3 m/S 744 mmHg 80%
16:00 +12°C° 0.1 mm 3 m/S 744 mmHg 77%
17:00 +12°C° 0.1 mm 3 m/S 744 mmHg 74%
18:00 +11°C° 0.4 mm 3 m/S 744 mmHg 80%
19:00 +11°C° 0.4 mm 4 m/S 744 mmHg 85%
20:00 +9°C° 0.4 mm 5 m/S 744 mmHg 91%
21:00 +9°C° 1.3 mm 5 m/S 744 mmHg 90%
22:00 +9°C° 1.3 mm 6 m/S 744 mmHg 89%
23:00 +9°C° 1.3 mm 7 m/S 744 mmHg 88%
Mehr zeigen

Wir brauchen deine Erlaubnis

Meteoprog und unser Service Anbieter werden persönliche Daten aufbewahren, so wie Cookies, Geräte Bezeichnung oder ähnliche Technologien von deinem Gerät und Prozess, so wie Persönliche Daten Inhalte und Werbungen, genauso wie social Media und den Verkehr zu analysieren.

  • Aufbewahrung und/oder Zugang zu deiner Geräte Informationen.

    Cookies, Geräte Bezeichnung oder andere Informationen, können aufbewahrt oder Zugang zu deinem Gerät erhalten, für den Grund, der oben angegeben wird.

  • Personalisierte Werbung und Inhalte, Messungen, Einblick in das Publikum und Produkt Entwicklung.

    Werbungen und Inhalte können personalisiert werden, basierend auf ein Profil. Mehr Daten können besser personalisierte Werbungen und Inhalte hinzufügen. Werbung und Inhalte können gezeigt und gemessen werden. Einblicke über das Publikum, welche die Werbung gesehen haben und den Inhalt, können abgeleitet werden. So wie Daten können genutzt werden, um es zu verbessern oder die Benutzer Erfahrung zu verbessern das System und die Software.

Wenn du “Ich stimme zu” klickst, erlaubst du uns, die Cookies zu benutzen die Geräte Bezeichnung, den Web oder ähnliche Technologien zu benutzen. Deine Settings, können in deinem Gerät bei deinem Browser geändert werden.

Für den bestimmten Zweck, berechtigten Interessen beruhen darauf, mehr als auf den Inhalt. Du kannst mehr darüber in unseren Privaten und Cookie Politik lesen.